Temp
62 61 61 61 60 60 60 59 58 59 59 59 59 59 60 59 58 66 61 68 65 68 67 71 72 70 65 61 62 60 49 44 48 53 59 65 64 70 69 65 67 69 68 70 70
62 62 62 61 60 60 59 59 58 58 59 59 59 59 59 58 58 61 68 69 69 69 69 68 67 67 60 57 61 56 47 51 58 60 58 62 61 64 64 60 63 66 69 70 68
62 62 62 61 60 60 59 58 58 59 59 58 59 59 58 57 61 66 69 69 69 69 67 67 68 65 58 58 55 52 52 58 60 62 61 60 57 61 58 55 62 62 64 66 66
61 61 61 61 60 60 59 58 58 59 59 59 59 59 58 59 54 64 69 68 70 68 70 67 65 59 54 53 56 52 62 64 62 64 61 58 60 60 56 60 67 68 67 65 59
60 60 60 60 60 60 59 58 58 58 58 59 59 59 59 58 62 72 68 69 70 70 67 65 62 59 54 56 59 56 58 62 63 63 62 64 58 59 57 64 68 69 66 59 58
59 59 59 60 60 59 59 58 58 57 57 58 59 58 56 52 74 72 71 70 70 67 66 65 62 64 60 58 54 59 58 58 58 59 60 63 59 57 61 65 67 66 58 57 57
58 58 58 59 59 59 58 58 57 57 57 58 59 60 55 58 70 66 72 71 71 70 66 67 65 61 59 57 63 60 54 55 57 57 57 60 55 53 63 67 65 61 58 57 57
58 58 57 58 58 58 58 57 56 56 56 57 59 55 51 71 68 70 70 70 74 72 69 70 67 61 58 61 60 55 51 44 54 57 60 60 48 60 64 64 60 58 56 55 55
57 57 57 56 56 57 56 56 56 56 57 57 54 53 52 71 67 71 71 69 71 69 67 76 65 56 57 49 45 46 41 44 50 57 57 55 48 58 61 63 57 54 53 53 52
57 57 57 57 56 56 55 55 56 55 60 62 62 51 59 63 69 71 70 72 65 64 62 59 54 48 46 43 37 42 43 48 46 52 53 50 52 55 56 58 50 50 49 51 50
57 57 57 56 56 55 53 53 51 51 49 53 54 56 64 68 72 67 70 68 64 58 49 53 45 41 46 48 51 50 47 45 48 55 50 50 48 56 56 50 46 46 46 48 49
56 57 57 56 56 54 53 51 49 53 46 57 57 59 65 66 58 64 69 60 56 49 51 46 42 52 54 53 51 50 46 45 49 54 51 46 47 53 53 48 47 46 45 46 47
56 56 57 55 54 52 52 53 54 55 44 51 57 59 60 64 57 59 64 59 53 49 49 44 50 57 54 51 50 49 46 45 46 47 49 45 42 49 47 49 50 48 47 47 46
55 55 54 53 51 49 48 53 55 54 39 46 49 55 61 63 55 68 68 61 53 49 50 47 56 54 51 50 52 44 52 51 48 42 36 44 31 43 43 44 46 45 43 44 44
55 55 53 54 48 47 51 51 53 51 22 50 54 65 61 57 59 59 70 60 52 52 51 46 49 48 49 52 54 47 51 48 45 39 35 38 33 37 43 40 41 42 44 43 43
54 54 53 50 49 51 51 53 50 32 23 44 56 53 52 55 57 59 60 63 60 52 53 49 57 54 52 54 54 53 48 46 41 37 28 39 37 33 38 41 42 44 44 44 43
54 54 52 51 43 52 53 46 33 26 45 43 48 53 51 49 52 53 53 51 47 41 42 49 51 55 57 47 50 47 41 29 27 26 28 42 38 42 42 45 44 42 41 42 42
53 53 51 49 48 49 47 37 25 36 40 51 51 51 46 51 50 53 49 44 53 47 41 38 35 50 54 49 45 44 42 28 25 24 29 43 33 35 44 46 46 45 43 43 41
53 44 43 45 49 47 40 28 29 36 45 45 47 43 43 48 50 49 48 47 50 52 39 37 40 54 54 54 52 42 36 45 34 34 28 34 35 42 44 43 43 41 42 40 40
42 40 39 46 47 44 35 31 32 45 47 46 37 43 39 43 44 45 45 50 50 54 52 46 36 49 50 53 50 47 49 35 33 26 24 32 33 32 37 38 40 38 38 39 39
40 37 42 48 47 38 28 31 38 46 48 42 39 39 40 40 44 44 43 50 53 52 54 48 40 40 46 39 40 41 37 40 38 32 26 27 33 41 40 40 38 38 40 39 39
37 31 43 48 34 34 31 35 43 43 47 43 43 41 40 42 40 41 41 46 54 52 47 46 38 35 39 47 51 46 43 41 28 32 34 31 30 42 40 40 39 40 42 41 41
33 34 45 46 28 30 35 35 40 41 41 40 40 43 43 39 33 39 43 50 53 50 46 46 34 29 35 41 44 40 44 46 42 37 31 28 30 44 43 41 41 39 40 40 39
34 27 30 39 38 34 32 32 33 43 41 44 42 44 40 36 40 37 41 48 49 47 49 49 37 34 31 35 39 36 42 46 39 30 33 36 33 38 38 38 39 39 39 38 39
33 29 32 27 31 35 35 36 33 33 41 44 38 40 38 33 36 36 40 42 47 47 45 41 35 37 40 41 40 40 40 42 35 38 32 38 37 37 38 37 37 39 41 40 40
29 31 32 32 34 33 34 32 33 36 38 37 37 41 41 36 37 34 39 38 39 41 41 42 33 35 34 41 40 37 38 39 40 41 42 43 38 43 40 39 37 39 39 38 38
37 36 34 33 31 30 32 34 35 39 41 43 42 39 36 41 43 44 42 42 43 39 35 35 34 32 29 37 36 27 32 35 37 42 40 35 38 40 37 37 36 36 38 37 38
MSLP
1021.23 1020.90 1020.99 1021.00 1020.86 1020.74 1020.80 1020.89 1020.61 1020.19 1020.00 1019.54 1018.92 1018.27 1017.74 1017.30 1016.31 1015.25 1015.01 1014.12 1013.99 1013.84 1013.83 1013.51 1012.92 1012.74 1012.70 1012.99 1012.92 1013.14 1014.37 1014.78 1013.96 1013.17 1012.48 1012.05 1011.82 1011.46 1011.54 1011.72 1011.78 1012.29 1012.63 1012.72 1012.88
1020.85 1020.80 1020.70 1020.75 1020.74 1020.71 1020.54 1020.73 1020.63 1020.35 1020.06 1019.50 1019.05 1018.31 1017.74 1017.36 1016.63 1015.23 1014.12 1013.88 1013.86 1013.84 1013.80 1013.84 1013.60 1013.29 1013.20 1013.30 1013.14 1013.53 1014.27 1014.08 1013.25 1012.98 1012.74 1012.40 1012.17 1012.19 1012.11 1012.53 1012.99 1012.87 1012.82 1013.02 1013.14
1020.30 1020.53 1020.49 1020.58 1020.60 1020.57 1020.52 1020.47 1020.48 1020.24 1020.13 1019.53 1019.05 1018.20 1017.56 1017.16 1016.45 1014.47 1013.87 1013.87 1013.97 1013.92 1013.81 1013.89 1013.83 1013.62 1013.48 1013.36 1013.33 1013.28 1013.56 1013.38 1013.12 1012.77 1012.51 1012.57 1012.56 1012.41 1012.60 1013.23 1013.08 1013.12 1013.24 1013.32 1013.68
1020.17 1020.16 1020.23 1020.50 1020.43 1020.45 1020.46 1020.46 1020.32 1020.18 1019.95 1019.59 1019.24 1018.45 1017.34 1017.12 1015.89 1013.89 1013.77 1013.98 1014.04 1013.95 1013.87 1013.88 1013.78 1013.75 1013.76 1013.67 1013.35 1013.31 1012.49 1012.67 1012.82 1012.53 1012.63 1012.68 1012.56 1012.61 1012.79 1013.08 1013.01 1012.89 1013.20 1013.90 1015.21
1020.12 1020.12 1020.16 1020.25 1020.18 1020.14 1020.38 1020.35 1020.24 1020.06 1020.00 1019.76 1019.41 1018.72 1017.55 1017.15 1015.04 1013.52 1013.55 1013.83 1014.15 1013.78 1013.91 1014.05 1013.94 1013.95 1013.96 1013.60 1013.24 1012.95 1012.63 1012.51 1012.31 1012.42 1012.32 1012.50 1012.66 1012.75 1013.17 1013.21 1013.13 1013.15 1013.85 1015.08 1016.17
1019.87 1019.82 1020.08 1020.10 1019.95 1020.03 1020.08 1020.15 1020.37 1019.87 1019.96 1019.80 1019.59 1019.10 1018.29 1017.03 1013.83 1013.50 1013.81 1013.84 1013.84 1014.03 1013.75 1013.82 1013.96 1013.93 1013.97 1013.78 1013.47 1013.01 1012.65 1012.47 1012.40 1012.26 1012.20 1012.41 1012.74 1012.80 1012.77 1013.12 1013.48 1013.67 1015.05 1016.01 1016.76
1019.72 1019.70 1019.77 1019.91 1019.83 1019.89 1019.84 1020.04 1020.02 1019.61 1019.77 1019.91 1019.71 1019.46 1018.54 1015.99 1013.82 1013.86 1013.94 1013.84 1013.27 1013.63 1013.67 1013.72 1013.59 1013.85 1014.08 1014.13 1013.68 1013.22 1012.96 1012.72 1012.22 1012.17 1012.29 1012.32 1012.84 1012.86 1012.57 1013.12 1013.75 1015.01 1015.88 1016.68 1017.44
1019.64 1019.52 1019.62 1019.63 1019.69 1019.72 1019.75 1019.84 1019.69 1019.62 1019.37 1019.39 1019.81 1019.64 1017.54 1014.32 1013.70 1013.86 1013.88 1013.52 1013.25 1013.21 1013.42 1013.60 1013.60 1013.84 1014.22 1014.08 1014.16 1013.93 1013.64 1013.38 1012.34 1012.13 1012.16 1012.60 1013.02 1012.73 1012.76 1013.34 1014.39 1015.77 1016.63 1017.34 1018.04
1019.73 1019.66 1019.43 1019.40 1019.39 1019.52 1019.64 1019.71 1019.63 1019.58 1019.22 1019.31 1019.46 1019.47 1016.47 1014.01 1013.48 1012.54 1013.11 1013.24 1013.12 1013.06 1013.36 1013.65 1013.91 1014.35 1014.54 1014.93 1015.20 1014.78 1014.40 1013.96 1013.19 1012.18 1012.33 1012.91 1013.29 1013.10 1013.29 1013.91 1015.44 1016.39 1017.09 1017.84 1018.51
1019.64 1019.51 1019.36 1019.25 1019.18 1019.25 1019.52 1019.68 1019.38 1019.55 1018.85 1019.02 1018.69 1018.99 1015.62 1013.96 1012.89 1012.35 1012.41 1012.69 1013.03 1013.13 1013.75 1014.11 1014.80 1015.21 1015.55 1015.58 1015.42 1014.76 1014.44 1013.96 1013.52 1012.78 1012.56 1013.00 1013.16 1013.47 1013.80 1014.41 1016.33 1017.24 1017.79 1018.24 1018.58
1019.65 1019.47 1019.29 1019.04 1018.91 1019.12 1019.67 1019.84 1020.22 1019.75 1019.10 1017.69 1016.90 1015.76 1014.38 1013.69 1012.89 1012.41 1012.38 1012.79 1013.25 1013.84 1014.32 1014.74 1015.40 1015.54 1015.46 1015.37 1014.86 1014.58 1014.20 1013.82 1013.10 1012.57 1012.93 1013.27 1013.66 1013.78 1014.30 1015.73 1017.25 1018.19 1018.52 1018.63 1018.80
1019.60 1019.37 1019.24 1018.99 1018.84 1019.13 1019.43 1019.57 1019.80 1019.84 1018.71 1016.65 1016.28 1015.62 1014.18 1013.93 1014.22 1013.10 1012.80 1013.16 1013.63 1014.29 1014.76 1015.43 1015.16 1014.56 1014.86 1015.11 1014.87 1014.53 1014.28 1013.87 1013.21 1012.94 1013.36 1014.09 1014.59 1014.39 1014.85 1016.45 1017.48 1018.36 1018.91 1019.01 1019.27
1019.58 1019.43 1019.15 1019.10 1019.19 1019.36 1019.49 1019.38 1019.36 1019.61 1019.12 1016.11 1014.70 1013.62 1013.60 1013.51 1012.63 1012.78 1013.36 1013.10 1013.51 1014.20 1014.76 1014.75 1014.11 1013.79 1014.44 1014.56 1014.63 1014.28 1013.98 1013.68 1013.72 1013.66 1013.84 1014.58 1015.58 1015.50 1016.81 1017.49 1018.28 1018.93 1019.08 1019.22 1019.43
1019.41 1019.42 1019.27 1019.43 1019.76 1019.73 1019.49 1019.34 1019.21 1019.28 1019.00 1014.98 1013.71 1011.50 1011.50 1011.71 1010.84 1011.13 1012.03 1012.92 1013.29 1013.66 1014.39 1014.40 1013.62 1013.87 1013.79 1013.76 1013.69 1013.78 1013.68 1013.89 1014.09 1014.54 1015.29 1015.47 1016.20 1016.18 1017.15 1018.20 1018.79 1019.42 1019.44 1019.50 1019.73
1019.20 1019.38 1019.47 1019.44 1019.49 1019.70 1019.10 1019.16 1019.38 1019.44 1018.61 1012.96 1011.09 1009.90 1010.08 1010.63 1010.10 1009.72 1009.76 1011.73 1012.16 1012.89 1013.65 1013.03 1012.69 1013.08 1013.20 1012.97 1013.24 1013.70 1013.99 1014.40 1014.95 1015.67 1016.06 1016.23 1017.08 1015.95 1017.10 1018.18 1018.82 1019.30 1019.55 1019.66 1019.92
1019.04 1019.14 1019.41 1019.67 1019.71 1019.44 1019.24 1019.48 1019.90 1019.85 1016.32 1012.31 1010.36 1009.87 1010.42 1010.34 1009.89 1009.42 1010.01 1011.10 1011.91 1012.82 1012.71 1012.60 1012.17 1012.31 1012.24 1012.42 1012.76 1013.79 1014.59 1015.34 1016.04 1016.73 1016.70 1016.43 1016.99 1015.63 1016.36 1016.94 1018.56 1019.30 1019.52 1019.66 1019.80
1018.67 1018.90 1019.35 1019.41 1019.63 1019.29 1019.48 1019.84 1020.27 1018.12 1014.46 1011.88 1010.48 1010.11 1010.14 1010.26 1010.13 1009.98 1010.35 1011.06 1011.94 1012.83 1012.19 1012.54 1011.83 1011.79 1011.90 1012.70 1013.34 1013.88 1015.23 1016.80 1017.57 1017.73 1016.84 1015.94 1016.85 1015.48 1016.09 1017.21 1018.14 1019.17 1019.64 1019.77 1020.15
1018.46 1018.63 1018.76 1019.18 1019.26 1019.39 1019.80 1020.08 1018.81 1015.85 1014.01 1011.49 1011.06 1010.74 1010.23 1010.16 1010.11 1010.23 1010.64 1010.86 1011.17 1011.90 1012.38 1012.41 1011.77 1011.33 1011.12 1011.58 1012.91 1014.08 1014.73 1016.51 1017.30 1017.25 1016.54 1016.06 1016.47 1016.21 1016.77 1017.67 1018.62 1019.35 1019.69 1020.14 1020.49
1018.12 1018.70 1018.92 1018.85 1019.08 1019.74 1019.92 1018.77 1017.00 1015.26 1013.69 1012.85 1012.51 1011.89 1011.24 1010.17 1010.03 1010.12 1010.04 1010.25 1010.05 1010.78 1011.68 1011.97 1011.33 1010.44 1010.39 1010.88 1011.88 1013.75 1014.50 1015.19 1016.70 1017.26 1017.16 1016.38 1016.89 1017.60 1017.62 1018.45 1019.29 1019.77 1019.99 1020.23 1020.69
1018.22 1018.58 1018.24 1018.07 1018.84 1019.80 1019.82 1018.00 1016.52 1014.76 1013.73 1013.20 1012.71 1012.24 1011.56 1011.37 1010.83 1010.39 1010.05 1009.26 1009.80 1009.65 1010.30 1011.01 1011.25 1010.74 1010.83 1011.03 1011.81 1012.41 1013.79 1015.25 1016.34 1016.92 1017.01 1016.20 1016.16 1016.08 1017.40 1018.41 1019.28 1019.91 1020.01 1020.38 1020.72
1018.11 1018.16 1016.94 1017.28 1018.64 1018.99 1018.11 1017.13 1016.16 1014.59 1014.22 1013.85 1013.12 1012.76 1012.12 1011.82 1011.17 1010.60 1009.98 1009.50 1009.03 1009.31 1009.87 1010.67 1011.34 1011.80 1011.55 1011.50 1011.90 1012.81 1013.54 1014.52 1015.36 1016.20 1015.96 1016.00 1015.68 1015.18 1016.79 1018.26 1019.32 1019.78 1019.76 1019.77 1020.15
1017.75 1017.66 1016.68 1016.91 1018.07 1017.36 1016.87 1016.22 1015.47 1014.21 1014.36 1014.09 1013.50 1013.14 1012.51 1012.16 1011.79 1011.13 1010.35 1009.30 1008.76 1009.04 1009.67 1010.24 1011.23 1012.15 1011.80 1011.78 1011.74 1012.26 1012.85 1013.89 1014.49 1015.23 1015.74 1016.04 1016.18 1016.42 1017.47 1018.47 1019.22 1019.53 1019.65 1019.76 1020.25
1017.40 1017.32 1016.48 1016.03 1016.19 1016.16 1016.18 1015.76 1015.00 1014.25 1014.00 1013.68 1013.45 1013.17 1012.84 1012.69 1012.71 1011.92 1010.86 1009.91 1009.43 1009.21 1009.27 1010.20 1011.61 1012.63 1012.76 1012.67 1012.42 1012.83 1013.09 1013.28 1014.10 1014.73 1015.15 1016.22 1016.62 1017.20 1017.95 1018.61 1019.24 1019.32 1019.66 1020.41 1020.90
1016.92 1016.99 1016.24 1014.84 1014.50 1014.84 1015.29 1014.78 1014.34 1013.73 1013.51 1013.62 1013.10 1013.24 1013.31 1013.16 1012.68 1012.17 1011.12 1010.81 1010.89 1010.08 1009.89 1009.95 1011.84 1012.73 1012.61 1012.58 1012.61 1013.12 1013.20 1013.26 1014.07 1014.70 1014.67 1014.99 1016.31 1017.42 1018.04 1018.50 1019.05 1019.50 1019.96 1020.39 1020.82
1015.74 1015.11 1014.23 1014.10 1013.19 1013.58 1014.14 1014.02 1013.81 1013.63 1013.03 1013.43 1013.20 1012.86 1012.82 1012.84 1012.68 1012.32 1012.15 1012.15 1011.72 1011.15 1011.23 1011.33 1011.89 1012.73 1012.86 1012.75 1013.13 1013.59 1013.66 1013.74 1013.60 1013.64 1014.04 1014.66 1015.31 1016.51 1017.39 1018.01 1018.89 1019.53 1019.80 1020.21 1020.81
1014.45 1014.35 1013.70 1013.72 1013.45 1013.00 1013.21 1013.08 1012.73 1012.65 1012.42 1011.92 1011.95 1011.41 1011.91 1012.22 1012.01 1012.01 1012.12 1012.04 1011.70 1011.83 1011.88 1012.63 1013.07 1013.11 1013.12 1013.12 1013.28 1013.78 1013.46 1013.70 1013.36 1013.16 1013.71 1014.40 1014.88 1015.80 1017.16 1018.35 1019.30 1019.68 1020.04 1020.45 1020.85
1013.38 1013.27 1013.93 1012.97 1012.83 1012.85 1011.68 1011.57 1011.01 1011.12 1010.90 1011.11 1011.26 1011.89 1012.15 1010.78 1011.47 1011.79 1012.21 1012.36 1012.26 1012.09 1012.71 1013.24 1013.26 1013.80 1013.62 1014.03 1014.47 1014.04 1011.76 1012.56 1012.61 1012.31 1013.14 1013.86 1014.37 1016.02 1017.57 1018.64 1019.32 1020.02 1020.39 1020.60 1020.91
Wind_Speed
6 4 4 5 5 6 8 10 12 13 16 17 17 18 19 18 17 2 3 6 2 3 5 6 7 7 2 2 2 3 5 2 3 2 2 5 5 8 5 8 7 5 5 5 1
7 6 5 5 6 7 7 9 11 13 14 16 17 17 18 18 3 4 7 5 1 5 4 5 7 9 4 1 4 5 4 6 3 4 1 3 6 4 5 3 5 4 3 4 7
7 7 6 6 6 7 7 8 9 12 14 16 18 18 21 11 4 3 5 4 2 3 1 1 5 2 4 5 1 1 5 5 3 4 3 3 1 3 3 4 3 5 4 4 11
9 8 7 7 7 7 8 9 9 11 14 16 18 20 22 4 2 2 6 5 3 3 4 4 5 4 2 3 2 3 7 6 7 6 4 4 1 3 2 6 8 8 5 9 19
10 9 8 8 8 7 8 9 9 9 12 15 17 19 7 5 8 4 7 5 4 1 2 3 4 3 3 4 5 5 3 2 6 8 7 7 4 4 5 6 8 8 14 19 15
9 9 9 9 8 9 7 7 10 9 11 14 16 17 3 3 4 4 5 3 5 2 4 1 3 4 5 4 0 3 3 3 1 2 3 5 3 5 4 9 6 13 18 17 16
7 9 9 9 8 10 8 7 8 8 10 13 13 6 1 14 2 1 3 5 4 3 3 1 2 3 3 7 5 3 5 4 4 3 3 3 5 5 6 8 8 20 17 16 14
7 7 8 9 9 9 10 7 8 8 10 9 10 4 8 7 5 6 9 7 6 4 0 4 2 1 2 4 8 5 3 2 4 4 6 8 6 4 9 9 8 18 15 14 12
7 8 7 7 8 8 9 9 9 12 11 8 1 3 11 10 3 9 9 8 4 2 1 2 3 2 4 1 4 3 4 5 9 7 5 5 3 7 5 6 11 12 11 12 10
7 7 7 8 6 7 5 6 6 8 7 4 3 4 6 5 4 3 5 5 2 4 1 2 4 1 4 4 7 6 4 4 6 4 3 4 5 6 4 5 9 8 6 9 9
8 7 5 6 5 4 4 3 3 2 2 9 8 6 6 4 5 4 3 5 4 3 6 3 3 8 11 8 6 5 4 5 4 4 4 7 4 9 1 14 8 5 5 8 8
9 9 5 6 2 11 3 3 0 1 8 10 15 16 14 5 5 10 4 6 5 8 4 1 11 13 7 7 9 11 11 7 1 2 5 4 6 9 4 7 7 8 6 6 5
7 9 4 4 13 5 2 4 5 2 4 7 9 11 11 10 15 15 7 6 6 7 9 10 12 7 12 11 10 5 4 4 5 2 5 4 5 9 6 10 7 6 6 5 7
5 8 9 12 3 3 2 5 5 2 5 7 7 10 11 11 14 20 15 10 6 11 9 9 17 17 11 12 10 7 4 4 4 4 5 2 5 7 9 7 7 4 5 6 7
4 2 12 3 5 2 3 7 4 3 2 7 7 6 6 13 3 9 22 7 16 10 8 10 2 7 14 10 7 6 4 4 3 3 3 1 1 9 12 7 8 6 5 5 6
6 6 12 3 2 2 5 7 1 5 14 6 4 7 6 9 5 2 15 4 6 7 11 7 6 5 7 2 5 8 5 6 5 3 4 8 7 6 7 10 10 4 5 5 5
8 6 9 5 4 4 4 3 3 7 4 7 5 5 7 7 9 2 12 16 14 12 18 10 17 6 5 6 4 6 7 2 3 0 7 7 8 10 6 12 10 8 5 4 5
9 6 6 4 1 6 3 2 7 9 15 3 2 13 10 8 6 13 6 9 17 5 4 11 6 15 7 9 8 6 9 8 7 5 4 2 6 4 9 10 8 6 6 4 5
10 1 2 5 6 3 5 8 10 7 5 8 15 14 5 6 11 15 20 19 12 18 11 7 7 4 7 7 14 6 5 7 3 3 3 3 3 4 9 9 7 6 5 4 4
4 2 4 9 9 5 8 13 7 10 5 4 4 5 8 7 5 8 10 11 11 17 6 6 3 2 2 5 4 7 7 4 1 5 6 5 5 4 15 11 7 4 4 4 2
3 3 4 14 7 5 10 10 16 18 7 5 4 5 5 4 11 11 6 10 9 12 17 7 5 2 3 2 8 4 3 3 5 5 5 3 4 4 14 9 7 4 3 5 6
3 6 4 12 10 4 11 11 17 15 13 8 4 7 7 6 5 4 10 9 7 8 14 9 6 9 6 5 5 7 7 7 5 4 3 1 4 6 8 8 6 5 3 5 7
3 3 5 10 11 14 7 11 15 16 15 9 15 8 4 5 6 8 7 6 6 4 10 8 2 1 2 1 3 3 4 4 4 3 5 4 3 6 9 7 5 4 3 2 2
4 5 4 9 7 16 16 16 18 17 14 17 5 17 9 5 7 5 7 5 7 3 6 11 5 9 16 1 3 6 5 9 6 6 6 11 7 11 9 8 6 4 2 2 2
6 5 6 7 14 17 16 14 20 13 15 15 6 14 11 8 6 7 6 4 5 2 7 3 8 5 2 8 4 3 8 10 11 14 10 11 10 14 11 8 6 4 3 2 2
6 5 3 8 1 19 22 20 19 19 11 21 22 21 13 13 9 5 6 5 5 0 5 6 1 2 3 4 4 11 16 18 12 13 10 9 8 8 7 7 6 5 3 0 2
6 3 1 11 19 13 21 29 31 27 21 23 18 15 10 21 7 8 6 6 8 9 8 9 7 4 10 9 8 8 23 18 9 5 7 14 6 15 12 10 8 6 5 4 4
Wind_Direction
264 269 289 306 329 339 345 343 347 351 350 345 344 340 333 332 319 290 262 217 177 321 314 310 357 343 85 302 318 82 58 351 278 182 166 14 56 343 39 71 40 66 122 161 86
249 261 275 294 316 324 339 341 344 346 344 343 337 335 326 332 315 288 266 159 160 334 354 10 329 350 359 287 332 95 114 220 215 161 94 53 71 316 38 67 22 84 70 77 63
233 246 259 272 293 309 323 337 342 345 340 342 336 336 325 325 328 281 193 212 225 311 279 292 293 298 325 17 280 198 202 191 164 130 132 119 27 335 41 34 220 145 96 56 67
239 242 249 262 275 296 310 326 336 340 341 341 335 333 326 298 330 276 184 228 239 305 339 335 342 334 287 302 309 274 249 172 184 176 133 158 152 359 63 183 189 157 142 76 73
253 254 251 255 259 274 294 317 322 332 337 339 336 334 2 350 259 226 182 226 285 216 255 327 323 344 303 292 330 197 317 26 150 173 160 148 170 211 159 213 199 123 76 87 81
255 255 258 257 263 272 280 301 312 328 333 337 340 325 40 294 279 186 201 197 240 259 279 33 305 267 270 282 171 276 276 301 271 273 216 169 206 157 227 195 158 97 88 82 80
315 273 261 259 257 267 274 277 302 322 327 329 337 319 308 236 284 102 200 250 212 195 304 317 16 29 11 314 313 282 332 338 229 198 230 153 321 226 191 183 141 95 97 92 86
346 352 286 262 262 268 278 281 286 297 308 323 327 296 253 256 275 239 246 261 267 252 252 324 8 107 186 298 338 336 23 355 283 136 212 130 247 316 193 155 151 115 106 100 86
330 324 331 286 253 259 270 283 291 302 300 291 355 271 267 301 231 250 177 207 216 219 218 339 47 217 349 122 351 333 247 235 313 201 149 156 189 249 195 176 108 117 113 111 100
318 314 325 316 267 248 255 276 303 325 285 190 254 342 261 261 258 222 169 181 163 153 35 112 37 336 4 113 221 217 210 253 241 235 117 166 207 248 217 130 121 118 112 109 95
312 304 319 327 278 198 126 304 293 268 264 206 185 220 289 310 273 236 189 137 113 127 175 202 132 219 223 219 246 286 301 263 278 180 108 190 222 256 132 104 114 111 110 106 94
331 329 316 323 288 138 140 170 146 125 297 238 255 256 273 265 303 297 121 156 158 223 146 356 241 231 223 234 243 255 247 246 300 110 111 172 236 263 347 136 141 137 105 90 83
326 333 306 35 120 111 165 165 149 191 275 262 222 228 227 214 229 234 186 184 178 200 214 202 235 222 224 250 238 239 200 209 195 24 359 87 326 262 41 97 106 82 99 82 74
309 333 124 133 158 153 189 192 194 112 287 255 231 249 198 217 255 213 207 167 209 202 221 236 243 246 250 236 193 207 188 152 106 98 191 117 261 264 145 123 107 100 81 72 57
272 260 155 134 128 198 287 143 142 67 304 255 188 210 189 177 156 208 193 181 200 189 160 225 204 205 229 229 177 216 147 132 118 104 62 283 330 258 130 161 158 164 124 98 83
252 211 169 62 5 294 97 111 92 83 235 282 229 184 136 198 240 54 170 146 158 203 247 222 264 169 210 147 177 146 82 40 42 85 271 192 181 244 189 180 155 151 121 91 82
239 236 173 136 203 154 125 105 175 192 265 238 204 197 186 184 217 212 175 188 194 201 229 242 244 244 175 105 15 101 97 303 320 270 234 223 208 252 102 125 144 150 134 104 79
234 212 206 177 189 139 113 161 208 224 231 270 56 242 223 183 217 222 202 197 215 174 160 209 286 204 186 171 161 195 159 160 213 205 239 185 231 247 108 119 124 137 128 93 70
230 204 200 196 153 139 159 222 201 218 197 256 274 279 283 245 207 202 218 223 200 197 182 189 242 236 185 153 149 198 193 167 82 283 55 205 102 90 140 141 146 147 136 113 95
143 204 219 168 149 155 202 221 232 244 309 17 223 237 241 254 267 225 211 229 221 203 164 209 288 320 124 95 65 146 155 100 354 195 222 241 201 224 175 165 157 158 155 148 111
135 219 250 147 135 198 203 227 236 248 236 215 248 252 270 250 230 234 235 237 214 205 196 176 125 317 74 186 162 130 161 183 167 168 186 192 247 227 162 156 155 163 61 68 32
166 218 168 146 194 190 203 207 223 237 240 261 275 247 233 241 289 281 234 214 204 170 193 191 154 220 190 217 199 199 193 165 150 199 249 158 245 104 118 141 148 148 61 66 40
186 227 208 178 206 216 201 216 231 229 227 220 232 219 236 251 222 221 271 350 322 152 177 167 207 171 196 63 347 206 206 189 146 110 208 179 227 139 145 145 149 121 53 84 66
177 201 249 216 209 205 208 212 220 234 245 230 246 231 259 286 229 252 232 224 335 37 351 112 131 209 233 160 146 187 200 220 184 231 232 238 156 182 176 167 156 153 144 116 69
186 221 207 195 210 201 203 207 220 226 213 226 268 245 222 232 238 230 222 232 181 55 10 71 164 161 172 118 77 338 320 278 216 225 211 219 201 193 184 178 167 173 132 41 38
190 188 252 238 347 214 203 209 211 221 203 215 215 230 224 232 212 201 192 215 208 5 126 335 299 104 246 208 242 244 236 260 256 232 249 246 200 172 138 125 155 165 131 275 48
217 186 36 229 226 233 213 213 212 216 226 231 218 234 245 237 218 227 233 260 248 179 184 177 158 156 256 258 267 269 234 230 248 204 195 225 169 159 157 165 162 161 163 139 81